{"data":{"norad_id":68375,"epoch":"2026-05-25T03:11:13.538976Z","epoch_age_seconds":62928,"freshness":"FRESH","line1":"1 68375U 26061R   26145.13279559  .00060520  00000+0  27589-3 0  9999","line2":"2 68375  82.2963  38.5402 0014079 184.2024 175.9128 15.83427511  9880","mean_motion":15.83427511,"eccentricity":0.0014079,"inclination_deg":82.2963,"raan_deg":38.5402,"arg_perigee_deg":184.2024,"mean_anomaly_deg":175.9128,"bstar":0.00027589,"rev_number":988,"period_min":90.941959135886,"perigee_km":311.32477547341,"apogee_km":330.18751879712,"semimajor_km":6698.8931471353,"source":"CELESTRAK","updated_at":"2026-05-25T13:38:07.768375Z"}}